Location: Zürich
(47.3769°N, 8.5417°E)
Time: 11:19:30
(UTC+02:00)

ISS - Pass Details

Date: 19 May 2021
Orbit: 417 x 422 km, 51.6° (Epoch: 13 June)

Event Time Altitude Azimuth Distance (km) Brightness Sun altitude
Rises 22:04:30 0° 254° (WSW) 2,357 0.5 -9.4°
Reaches altitude 10° 22:06:37 10° 258° (WSW) 1,496 -0.5 -9.6°
Maximum altitude 22:09:57 64° 340° (NNW) 469 -3.3 -10.0°
Drops below altitude 10° 22:13:18 10° 63° (ENE) 1,504 -1.1 -10.4°
Sets 22:15:25 0° 67° (ENE) 2,371 -0.1 -10.7°
